Weather in Pavlovka

Russia / Republic of Crimea     45°10′48″N   34°42′33″E
temp.,
°C
wind,
m/s
gust,
m/s
humid.,
%
clouds,
%
prec.,
mm/h
press.,
hPa
HPBL,
m
25 february, thu
thu2500:00−2se116953 0.0 103697
03:00−2nnw116952 0.0 103629
06:00−2wnw017031 0.0 103622
09:00−1sse116149 0.0 1036117
12:00+4wnw124959 0.0 1035357
15:00+6w235757 0.0 1034561
18:00+3wnw2375100 0.0 103344
21:00+2wsw2583100 0.0 1033124
26 february, fri
fri2600:00+3wsw3885100 0.0 1032219
03:00+3wsw499091 0.0 1031242
06:00+4wsw4892100 0.0 1030225
09:00+5w3791100 0.0 1030232
12:00+9w578093 0.0 1029495
15:00+11w687567 0.0 1028724
18:00+9wsw488174 0.0 1026428
21:00+6sw348637 0.0 102568
27 february, sat
sat2700:00+6sw37850 0.0 1024154
03:00+5wsw49850 0.0 1023217
06:00+5wsw411830 0.0 1021244
09:00+7wsw512770 0.0 1020416
12:00+11w710680 0.0 1019825
15:00+12w7106919 0.0 1018890
18:00+9w698091 0.0 1016650
21:00+7nw469396 1.1 1017380
28 february, sun
sun2800:00+6nnw5793100 4.8 1016478
03:00+4wnw4787100 6.3 1017781
06:00+4wnw4872100 0.1 1017702
09:00+3wnw698398 0.2 1018863
12:00+3wnw5889100 0.3 1019629
15:00+5nw676699 0.6 10201089
18:00+3nw588491 0.4 1021658
21:00+2nw479392 0.6 1023454
1 march, mon
mon100:00+1nw478795 0.1 1025339
03:00+1nw469694 0.2 1026340
06:00+1nw459399 0.1 1027364
09:000nw359599 0.3 1028309
12:00+2nnw3584100 0.4 1030543
15:00+3nnw3472100 0.7 1030761
18:00+2nnw457296 0.1 1031710
21:00+1nnw357795 0.1 1033339